KB2UZY Weather Reports


time (UTC)temp
C
wind
direction
speed
KPH
gust
KPH
rain 1hr
cm
rain 24hr
cm
rain mn
cm
humidity
%
barometer
mb
20260507020100 13 188 4.8 12.9 0.03 0.28 0.28 93 1006.4
20260507014558 13 281 0.0 11.3 0.03 0.28 0.28 94 1006.2
20260507013053 13 271 0.0 8.0 0.03 0.28 0.28 94 1006.2
20260507011552 14 261 4.8 14.5 0.00 0.25 0.25 94 1005.7
20260507010048 15 236 6.4 22.5 0.00 0.25 0.25 95 1005.2
20260507004549 15 197 6.4 20.9 0.00 0.25 0.25 95 1005.0
20260507003045 15 159 12.9 25.7 0.00 0.25 0.25 95 1004.9
20260507001543 15 157 6.4 20.9 0.00 0.25 0.25 94 1005.1
20260507000043 15 186 6.4 12.9 0.00 0.25 0.25 94 1005.0
20260506234553 15 138 4.8 14.5 0.00 0.25 0.25 94 1004.7
20260506233049 15 171 9.7 19.3 0.03 0.25 0.25 94 1004.7
20260506231544 15 192 8.0 25.7 0.03 0.25 0.25 94 1004.6
20260506230040 15 214 9.7 20.9 0.03 0.25 0.25 94 1004.6
20260506224541 15 168 6.4 20.9 0.05 0.25 0.25 94 1004.4
20260506223038 15 234 9.7 17.7 0.03 0.23 0.23 94 1004.5
20260506221539 15 179 9.7 22.5 0.03 0.23 0.23 94 1004.5
20260506220038 15 178 8.0 22.5 0.05 0.23 0.23 94 1004.5
20260506214537 15 202 8.0 33.8 0.03 0.20 0.20 93 1004.5
20260506213039 15 159 11.3 22.5 0.05 0.20 0.20 93 1004.6
20260506211535 15 172 9.7 24.1 0.05 0.20 0.20 93 1004.5
20260506210036 15 188 9.7 19.3 0.05 0.18 0.18 93 1004.5
20260506204536 15 181 8.0 25.7 0.05 0.18 0.18 93 1004.6
20260506203039 15 171 11.3 24.1 0.05 0.15 0.15 92 1004.8
20260506201537 15 180 9.7 24.1 0.03 0.13 0.13 92 1004.9
20260506200038 15 140 9.7 25.7 0.03 0.13 0.13 91 1005.1
20260506194530 15 164 8.0 29.0 0.03 0.13 0.13 91 1005.1
20260506193027 15 184 9.7 24.1 0.03 0.10 0.10 90 1005.5
20260506191527 15 164 8.0 22.5 0.03 0.10 0.10 90 1005.6
20260506190026 16 194 14.5 30.6 0.05 0.10 0.10 90 1005.6
20260506184529 16 171 12.9 29.0 0.05 0.10 0.10 90 1005.6
20260506183024 16 153 9.7 33.8 0.05 0.08 0.08 89 1005.6
20260506181523 16 186 9.7 24.1 0.08 0.08 0.08 88 1005.7
20260506180027 16 178 8.0 24.1 0.05 0.05 0.05 87 1005.6
20260506174522 17 193 6.4 20.9 0.03 0.03 0.03 85 1005.6
20260506173027 17 159 12.9 25.7 0.03 0.03 0.03 82 1006.3
20260506171520 18 177 9.7 27.4 0.00 0.00 0.00 79 1006.6
20260506170021 18 207 12.9 33.8 0.00 0.00 0.00 76 1006.7
20260506164519 20 203 16.1 32.2 0.00 0.00 0.00 72 1006.5
20260506163025 20 188 8.0 24.1 0.00 0.00 0.00 71 1006.2
20260506161517 20 183 11.3 27.4 0.00 0.00 0.00 70 1006.4
20260506160015 20 171 3.2 22.5 0.00 0.00 0.00 72 1006.8
20260506154510 20 168 8.0 24.1 0.00 0.00 0.00 72 1007.1
20260506153007 19 172 3.2 19.3 0.00 0.00 0.00 73 1007.2
20260506151506 19 168 8.0 24.1 0.00 0.00 0.00 75 1007.2
20260506150002 18 202 9.7 22.5 0.00 0.00 0.00 76 1007.6
20260506144503 18 165 8.0 22.5 0.00 0.00 0.00 77 1007.7
20260506143100 18 251 6.4 20.9 0.00 0.00 0.00 78 1007.7
20260506141558 17 150 11.3 20.9 0.00 0.00 0.00 79 1007.7
20260506140058 17 168 6.4 25.7 0.00 0.00 0.00 80 1007.7
20260506134552 17 157 8.0 20.9 0.00 0.00 0.00 81 1007.7
20260506133049 16 191 6.4 20.9 0.00 0.00 0.00 82 1007.6
20260506131553 16 180 9.7 25.7 0.00 0.00 0.00 83 1007.8
20260506130101 16 159 11.3 24.1 0.00 0.00 0.00 83 1007.8
20260506124554 16 169 12.9 24.1 0.00 0.00 0.00 83 1008.2
20260506123046 16 137 4.8 17.7 0.00 0.00 0.00 84 1008.2
20260506121546 15 196 3.2 19.3 0.00 0.00 0.00 84 1008.2
20260506120046 15 167 8.0 24.1 0.00 0.00 0.00 84 1008.3
20260506114545 15 180 6.4 20.9 0.00 0.00 0.00 84 1008.2
20260506113051 15 210 9.7 20.9 0.00 0.00 0.00 86 1008.2
20260506111543 15 194 9.7 17.7 0.00 0.00 0.00 87 1008.2
20260506110051 14 171 8.0 16.1 0.00 0.00 0.00 87 1008.6
20260506104547 14 195 8.0 16.1 0.00 0.00 0.00 87 1008.6
20260506103045 14 178 6.4 19.3 0.00 0.00 0.00 87 1008.4
20260506101548 14 171 8.0 19.3 0.00 0.00 0.00 87 1008.2
20260506100045 14 161 6.4 24.1 0.00 0.00 0.00 86 1008.2
20260506094528 14 186 8.0 22.5 0.00 0.00 0.00 86 1008.2
20260506093038 14 190 4.8 16.1 0.00 0.00 0.00 85 1008.2
20260506091625 14 180 8.0 19.3 0.00 0.00 0.00 85 1008.2
20260506090025 14 173 11.3 19.3 0.00 0.00 0.00 84 1008.2
20260506084521 14 198 8.0 24.1 0.00 0.00 0.00 83 1008.2
20260506083017 15 203 6.4 16.1 0.00 0.00 0.00 83 1008.4
20260506081515 15 164 8.0 17.7 0.00 0.00 0.00 82 1008.3
20260506073018 15 140 6.4 17.7 0.00 0.00 0.00 80 1008.3
20260506071509 15 178 4.8 17.7 0.00 0.00 0.00 80 1008.3
20260506061600 16 148 8.0 27.4 0.00 0.00 0.00 77 1007.9
20260506044638 17 181 9.7 20.9 0.00 0.00 0.00 71 1008.3
20260506043046 17 186 6.4 25.7 0.00 0.00 0.00 71 1008.3
20260506041556 17 183 6.4 24.1 0.00 0.00 0.00 71 1008.3
20260506040040 17 201 11.3 20.9 0.00 0.00 0.00 70 1008.3
20260506034605 17 159 9.7 19.3 0.00 0.00 0.00 70 1008.4
20260506033039 17 231 12.9 22.5 0.00 0.00 0.00 69 1008.6
20260506031542 17 167 14.5 32.2 0.00 0.00 0.00 69 1008.6
20260506030040 17 165 11.3 19.3 0.00 0.00 0.00 68 1008.7
20260506024539 17 163 6.4 19.3 0.00 0.00 0.00 68 1008.6
20260506023059 17 171 6.4 27.4 0.00 0.00 0.00 67 1008.4
20260506021537 17 168 6.4 22.5 0.00 0.00 0.00 66 1008.3